Wind_Speed
14 14 15 8 3 4 3 4 1 7 2 1 8 5 4 3 3 3 11 8 4 7 11 12 16 14 13 11 8 5 5 5 2 10 13 8 6 4 5 4 2 4 5 4 4 5 1 7 6
13 13 8 1 3 2 5 4 2 3 5 7 1 3 3 0 1 5 9 8 8 7 9 11 16 15 13 11 8 6 7 4 0 9 15 11 8 4 4 6 9 8 6 6 3 1 2 4 7
10 9 4 3 3 4 5 4 3 8 9 4 1 4 1 3 3 10 6 9 10 10 10 11 14 15 12 10 8 6 5 3 4 8 10 8 6 3 2 3 9 9 8 6 6 5 3 2 1
6 3 1 3 7 6 5 4 3 8 4 3 4 2 1 3 3 4 8 10 10 10 10 9 12 13 11 10 7 5 3 3 6 8 9 9 6 5 5 3 6 7 7 7 7 7 7 6 5
6 2 1 3 6 5 5 7 5 7 8 0 2 2 2 2 6 6 8 10 8 10 10 9 11 11 9 10 7 5 3 2 5 9 9 9 6 4 5 4 4 5 5 6 7 8 8 8 8
4 2 2 7 6 4 6 10 6 4 8 1 4 3 3 5 4 6 8 9 8 7 9 9 10 10 9 9 7 6 4 3 4 7 7 7 7 5 5 5 3 2 3 5 6 7 7 7 7
4 3 5 5 5 6 6 3 3 5 6 3 6 4 2 8 6 7 7 9 8 8 8 8 9 10 10 9 8 7 6 5 4 4 5 6 7 6 6 4 2 1 3 5 6 6 6 6 6
4 3 3 6 6 11 4 2 4 3 6 2 3 4 2 6 9 11 10 9 11 11 10 8 9 12 12 10 10 8 6 4 4 3 3 5 7 6 4 3 2 3 4 5 5 5 5 5 6
5 1 7 8 8 8 2 1 4 6 5 6 4 6 2 4 12 15 14 14 16 16 14 12 11 13 13 12 10 9 6 5 4 4 4 6 8 6 5 3 3 4 4 4 5 6 6 8 9
6 5 7 4 4 5 2 6 9 5 14 7 4 3 4 6 15 16 17 16 17 17 18 16 14 14 14 14 13 9 6 6 6 6 7 7 7 5 3 2 2 2 2 4 4 5 8 9 11
4 10 7 4 11 14 7 6 12 6 6 13 9 5 2 5 16 16 14 14 13 14 18 18 16 16 16 15 13 10 7 7 8 9 7 6 5 4 3 2 0 2 4 6 8 10 10 13 14
5 5 11 7 12 7 4 5 5 10 9 14 13 9 6 9 14 15 16 16 20 18 20 18 17 19 18 15 13 9 8 7 8 8 7 5 3 3 1 1 3 5 5 7 10 12 14 17 16
5 3 10 16 19 22 24 20 13 19 26 28 24 22 18 15 16 16 18 18 24 26 26 24 21 20 19 17 14 11 9 7 8 8 6 5 4 6 3 4 5 5 8 10 13 15 18 18 16
4 7 10 10 15 17 15 20 22 17 23 25 27 25 24 22 25 22 19 22 26 27 26 27 25 21 20 19 15 11 11 9 8 8 7 7 7 7 6 6 6 8 10 13 17 17 16 17 18
6 6 6 7 8 7 8 21 23 26 27 25 28 28 26 24 24 23 23 22 23 25 25 24 27 24 21 19 15 12 12 13 12 11 10 8 9 10 8 8 9 11 13 15 14 16 18 20 20
3 2 2 3 10 8 10 23 4 22 31 31 31 32 28 31 30 29 26 25 24 27 28 26 28 26 22 20 18 18 18 17 15 14 12 11 10 9 9 8 8 11 10 13 16 19 20 20 20
5 7 4 5 7 5 12 13 6 24 25 25 28 29 30 32 31 28 27 26 26 28 27 26 28 26 24 24 22 21 19 19 18 15 12 10 9 8 8 7 6 7 11 13 15 16 18 19 17
4 4 3 5 4 3 13 19 11 22 23 24 27 35 36 34 29 26 26 23 21 21 22 25 30 29 28 27 25 23 21 19 18 14 12 9 8 8 6 4 6 8 11 13 14 15 16 17 18
5 5 5 4 7 6 8 15 13 16 21 23 27 30 34 37 30 23 23 23 21 21 20 25 31 32 32 31 29 25 23 20 15 12 11 10 9 7 3 4 6 10 14 16 17 15 14 16 19
11 13 16 7 9 9 12 21 15 12 18 21 25 31 39 35 30 22 25 24 22 22 24 27 29 32 35 34 28 26 22 19 16 13 13 12 9 5 2 5 9 12 15 16 15 14 14 15 19
10 12 10 13 9 13 12 29 21 18 23 28 31 34 38 38 34 26 29 27 23 22 23 26 30 33 35 33 27 27 23 19 17 16 16 13 9 4 2 6 10 12 15 15 14 14 15 15 15
19 9 13 12 5 6 5 12 8 6 16 19 25 29 36 35 32 31 33 28 25 21 21 21 24 31 33 30 25 26 24 21 20 20 17 12 8 4 4 7 10 13 15 14 13 14 14 16 17
10 7 10 10 7 7 15 8 6 11 18 14 10 24 33 35 33 32 34 30 25 22 22 21 24 30 30 26 24 25 24 22 23 21 16 12 7 5 6 8 11 13 15 14 13 13 15 17 18
1 9 7 7 8 14 11 12 16 12 12 8 9 25 32 34 31 35 35 29 26 24 24 25 27 28 26 23 22 22 23 25 25 21 16 11 8 6 7 9 12 14 14 14 14 15 16 17 19
12 5 3 4 7 8 8 11 24 6 7 12 13 24 31 33 35 38 37 33 30 30 30 29 28 27 25 22 22 22 24 23 20 17 13 10 8 7 8 11 13 14 15 15 15 16 17 19 21
16 15 5 6 4 4 12 10 9 15 24 32 31 25 21 32 37 42 42 38 36 35 34 33 30 28 27 25 26 26 24 22 19 15 12 10 8 8 10 12 14 15 15 15 17 18 20 21 23
5 11 19 8 8 4 5 7 6 9 11 11 14 21 26 31 37 45 45 41 38 36 36 34 33 31 29 28 28 26 24 21 17 14 12 10 8 9 10 12 14 15 16 17 18 20 22 23 24
17 7 4 6 5 7 7 6 8 5 15 14 12 12 26 31 38 44 48 45 40 37 35 33 31 31 30 28 26 25 22 19 16 14 11 9 9 10 11 13 15 15 17 18 21 23 23 25 25
7 13 7 4 5 4 4 8 4 8 12 10 10 18 27 33 38 42 47 42 38 36 35 33 32 31 30 28 26 24 22 19 16 13 10 9 9 10 12 14 15 17 18 21 23 24 25 26 27
13 14 17 4 5 7 5 10 2 9 15 7 7 18 24 28 33 43 45 42 39 37 34 33 31 30 29 27 25 22 19 17 14 11 9 9 9 11 13 15 16 18 20 22 24 25 26 28 28
Wind_Direction
301 315 323 325 35 59 275 266 233 314 327 279 309 262 172 77 156 198 152 155 146 160 161 161 172 175 205 209 212 234 274 292 276 159 163 160 158 172 141 170 68 64 45 58 206 220 185 202 223
302 313 329 355 97 68 272 268 266 247 276 332 42 123 32 293 117 152 149 148 142 161 160 159 174 184 196 207 217 251 276 278 183 149 182 174 184 165 108 134 66 51 43 52 76 151 234 239 245
300 318 302 93 125 186 220 223 300 286 303 12 57 53 96 155 151 152 155 160 150 160 161 160 172 184 195 204 220 234 260 241 178 158 153 168 158 118 114 24 44 31 32 53 60 63 56 45 36
288 287 60 120 232 245 226 284 283 313 277 62 69 27 14 202 184 197 174 166 153 160 161 167 169 180 190 194 193 215 233 224 174 176 161 151 158 153 183 262 344 18 33 57 56 54 49 41 36
267 244 216 238 246 242 249 274 303 280 287 19 23 194 217 152 218 204 182 165 164 167 168 172 180 182 189 198 206 206 209 169 163 178 171 156 160 160 206 243 324 352 23 40 41 38 32 25 20
209 147 132 231 246 243 265 256 293 243 260 235 102 139 222 187 195 207 192 170 164 189 187 183 190 196 197 201 213 219 202 157 130 164 165 164 170 175 190 226 273 330 31 35 35 33 29 22 15
164 123 216 224 254 289 236 213 246 247 267 199 142 132 231 203 186 219 198 191 200 198 208 208 207 208 209 216 220 228 205 162 130 130 173 170 179 173 175 205 202 11 21 28 31 38 33 28 27
210 129 219 222 217 260 230 226 277 206 273 219 161 176 219 234 203 205 213 218 220 223 219 223 226 220 216 219 222 223 207 172 151 141 162 171 177 184 175 158 102 47 45 45 42 28 22 12 5
181 172 228 218 187 234 119 175 205 338 295 269 202 179 331 240 207 204 212 214 219 223 228 228 228 226 220 219 222 215 203 189 182 175 177 172 166 156 142 130 92 65 49 44 21 9 359 342 329
179 216 230 226 216 261 242 309 315 346 312 294 254 205 273 223 201 206 215 224 229 230 232 228 226 226 220 217 217 214 215 201 192 180 164 159 161 158 157 139 108 52 17 358 338 335 317 311 313
217 241 264 297 262 261 260 258 272 267 270 251 248 227 187 198 199 209 217 236 263 258 239 235 228 224 220 218 214 212 218 200 180 176 180 171 169 162 154 138 43 336 324 313 320 321 313 311 307
268 254 250 282 274 285 282 281 262 246 250 284 291 274 233 208 219 226 230 245 252 256 251 239 231 227 222 217 215 212 210 199 191 187 192 175 176 170 186 252 265 293 303 306 309 307 298 298 297
228 253 276 277 272 276 285 273 259 257 271 280 279 274 268 256 242 244 253 258 267 255 252 243 232 229 223 220 214 210 203 197 189 195 201 203 207 201 224 236 270 286 297 303 295 293 293 295 293
278 286 279 285 277 274 271 275 280 262 268 272 276 273 260 267 263 265 258 263 264 251 253 243 234 229 225 223 217 216 205 195 196 204 193 197 209 219 233 256 268 283 289 286 292 295 296 296 297
283 297 291 241 249 251 281 268 251 264 270 272 270 270 256 256 259 274 276 265 262 242 247 243 232 224 220 221 215 217 211 205 209 200 207 211 244 256 249 259 275 283 283 293 298 299 298 298 299
296 262 283 251 199 229 180 250 227 240 254 259 262 265 253 258 264 275 275 273 265 241 242 239 225 218 214 213 209 220 215 213 214 214 221 238 249 255 255 258 272 282 287 298 300 301 303 305 309
196 258 214 321 222 226 204 276 252 245 254 260 262 266 267 266 271 268 279 269 258 242 233 228 218 214 209 202 209 214 210 210 208 214 229 237 247 254 244 258 271 294 305 310 314 316 314 316 318
245 256 248 220 205 278 264 267 287 281 279 267 260 263 265 267 267 268 269 241 232 234 225 219 210 205 206 204 203 212 207 204 208 219 229 227 241 229 229 256 298 318 328 331 329 329 326 327 327
298 281 283 313 298 335 280 292 285 271 263 258 262 264 266 261 265 265 229 228 230 226 215 209 204 202 207 205 202 204 199 199 205 217 227 226 208 205 229 298 328 337 337 337 337 334 331 331 333
249 260 264 282 268 280 293 284 281 271 268 253 251 252 256 260 259 235 221 225 229 230 220 211 207 208 207 207 202 203 208 204 207 215 211 187 190 206 265 329 339 341 339 337 333 333 339 343 342
239 241 252 256 289 279 289 282 271 259 247 251 243 245 252 256 252 234 223 223 223 225 222 218 216 213 204 201 199 196 195 201 207 203 191 186 192 212 299 329 334 337 339 336 334 334 337 341 345
253 212 232 247 246 252 171 281 250 245 244 238 238 231 241 246 248 239 219 213 216 216 215 211 208 199 194 198 199 201 203 208 202 192 189 191 195 226 296 317 329 335 335 333 330 331 332 335 337
246 221 226 228 234 273 257 280 279 202 247 259 245 238 236 240 240 231 216 215 208 209 201 195 188 186 191 197 196 200 209 208 192 187 191 192 203 242 286 316 325 328 329 328 327 326 327 329 328
215 229 261 241 230 248 233 221 269 241 234 250 242 243 240 233 225 221 210 203 195 196 193 184 183 183 190 197 204 210 209 195 189 188 192 198 219 255 293 311 319 322 325 324 323 323 324 322 321
201 230 233 222 210 239 199 219 246 256 259 241 230 237 240 231 215 209 200 194 193 191 188 185 186 186 188 193 199 196 193 193 193 192 196 210 235 265 293 307 316 321 321 321 319 318 318 317 318
191 200 213 211 223 231 207 238 241 221 232 235 243 249 246 219 212 202 198 196 194 191 189 188 187 187 187 190 189 186 190 193 194 200 207 221 242 267 291 308 315 317 317 315 314 315 316 317 318
171 212 217 258 277 268 235 290 291 242 244 237 234 221 216 207 205 199 193 192 191 190 190 187 186 191 189 184 188 189 193 198 203 209 217 230 252 280 301 311 313 315 312 312 312 315 317 318 318
217 150 190 199 212 246 256 253 240 288 245 233 218 210 205 201 195 194 190 187 187 188 188 188 190 189 185 187 193 195 197 201 208 214 222 240 267 291 304 309 309 308 309 311 315 317 318 318 319
192 228 219 256 197 217 289 265 233 280 287 220 211 201 183 183 181 183 186 184 185 185 187 185 187 189 188 190 194 198 200 204 209 217 231 252 275 291 301 305 305 306 310 314 315 317 319 319 318
207 206 207 216 228 235 297 261 238 14 319 211 171 166 170 171 172 178 181 180 179 181 183 185 187 188 190 192 196 198 203 208 214 225 242 261 281 296 302 304 305 309 313 315 317 319 320 320 321
Height
1507 1506 1505 1503 1514 1515 1515 1504 1495 1495 1488 1484 1483 1486 1483 1484 1486 1498 1486 1487 1489 1489 1491 1493 1495 1497 1498 1499 1500 1500 1501 1501 1500 1501 1503 1504 1504 1505 1505 1505 1505 1505 1505 1504 1505 1505 1506 1506 1506
1505 1505 1505 1503 1519 1525 1519 1498 1493 1491 1487 1485 1484 1484 1483 1485 1484 1485 1486 1487 1488 1490 1491 1493 1495 1497 1498 1499 1500 1501 1502 1501 1500 1500 1501 1503 1505 1505 1506 1506 1505 1506 1505 1503 1504 1505 1506 1505 1505
1505 1505 1506 1508 1521 1523 1516 1495 1492 1488 1486 1484 1483 1484 1485 1485 1484 1485 1486 1487 1488 1490 1492 1493 1494 1496 1497 1499 1500 1501 1502 1501 1501 1501 1502 1503 1505 1506 1506 1507 1506 1506 1505 1504 1503 1504 1505 1505 1504
1505 1506 1507 1512 1513 1507 1502 1493 1491 1488 1484 1484 1484 1485 1486 1485 1485 1486 1486 1487 1488 1489 1491 1493 1494 1495 1498 1499 1499 1501 1501 1501 1501 1501 1502 1504 1505 1506 1507 1508 1508 1507 1506 1505 1505 1504 1505 1505 1505
1504 1504 1512 1511 1507 1500 1495 1491 1490 1490 1486 1483 1484 1485 1486 1485 1485 1485 1485 1487 1489 1490 1491 1492 1494 1495 1497 1499 1499 1500 1500 1501 1500 1501 1502 1504 1506 1506 1507 1508 1507 1507 1507 1506 1505 1505 1505 1506 1505
1503 1504 1515 1513 1503 1496 1492 1490 1489 1487 1486 1483 1483 1485 1485 1485 1485 1485 1486 1487 1489 1490 1491 1492 1494 1495 1497 1498 1499 1500 1500 1501 1500 1501 1502 1503 1505 1506 1507 1507 1507 1507 1507 1506 1505 1505 1505 1506 1505
1500 1505 1508 1505 1501 1496 1488 1487 1487 1486 1486 1482 1482 1484 1485 1485 1486 1486 1486 1488 1490 1490 1491 1492 1494 1495 1496 1497 1498 1500 1499 1500 1501 1502 1502 1502 1504 1506 1506 1506 1506 1507 1507 1506 1505 1505 1505 1505 1505
1498 1500 1504 1502 1500 1493 1485 1485 1485 1485 1485 1483 1482 1484 1485 1485 1487 1486 1486 1488 1489 1491 1491 1492 1493 1495 1495 1497 1497 1498 1500 1500 1500 1502 1502 1502 1504 1505 1505 1506 1506 1507 1507 1506 1506 1505 1505 1505 1505
1496 1503 1501 1495 1497 1488 1484 1484 1484 1484 1484 1484 1482 1482 1483 1483 1485 1486 1485 1486 1488 1489 1490 1491 1492 1494 1495 1496 1497 1497 1498 1499 1500 1501 1502 1503 1504 1504 1505 1506 1506 1506 1507 1506 1506 1505 1505 1505 1505
1494 1497 1491 1488 1488 1487 1487 1486 1484 1484 1483 1484 1483 1482 1482 1481 1481 1483 1484 1485 1486 1487 1488 1489 1491 1492 1494 1495 1497 1497 1497 1499 1500 1501 1502 1503 1504 1504 1504 1505 1505 1506 1507 1506 1505 1505 1504 1503 1503
1490 1487 1487 1486 1487 1487 1485 1485 1485 1483 1484 1482 1482 1481 1480 1480 1481 1482 1483 1485 1484 1487 1488 1488 1489 1491 1492 1494 1496 1497 1497 1498 1499 1500 1503 1503 1504 1504 1504 1505 1505 1505 1506 1505 1504 1504 1503 1502 1501
1492 1485 1487 1486 1486 1486 1484 1483 1481 1481 1480 1481 1481 1481 1480 1480 1480 1481 1482 1483 1484 1484 1486 1487 1488 1488 1490 1492 1494 1496 1497 1498 1499 1501 1502 1502 1503 1504 1504 1504 1504 1504 1505 1505 1504 1503 1502 1501 1499
1488 1485 1485 1485 1485 1484 1483 1479 1480 1476 1478 1478 1478 1479 1479 1478 1478 1479 1480 1481 1482 1482 1482 1484 1485 1486 1488 1491 1493 1495 1496 1498 1499 1501 1501 1502 1503 1504 1503 1502 1504 1503 1504 1504 1502 1501 1500 1498 1497
1485 1483 1483 1483 1481 1482 1481 1475 1476 1470 1474 1473 1474 1474 1475 1475 1474 1475 1476 1476 1477 1477 1477 1480 1482 1484 1486 1488 1492 1494 1495 1497 1499 1500 1501 1501 1502 1503 1502 1502 1503 1502 1503 1502 1500 1498 1497 1496 1494
1483 1483 1480 1479 1480 1479 1478 1467 1464 1469 1469 1467 1468 1469 1470 1470 1469 1470 1471 1471 1471 1472 1474 1475 1477 1481 1483 1486 1489 1493 1494 1495 1497 1498 1499 1501 1502 1503 1502 1502 1501 1501 1500 1499 1498 1496 1494 1493 1491
1484 1483 1484 1472 1472 1474 1476 1449 1457 1460 1462 1460 1461 1462 1464 1463 1463 1464 1465 1465 1467 1468 1469 1471 1473 1477 1480 1484 1487 1490 1492 1494 1496 1497 1499 1500 1501 1501 1501 1500 1499 1500 1499 1497 1496 1493 1491 1489 1486
1483 1483 1482 1477 1469 1469 1469 1451 1454 1457 1458 1454 1454 1455 1456 1456 1457 1458 1459 1459 1460 1463 1465 1468 1470 1473 1477 1480 1483 1487 1490 1492 1495 1495 1497 1498 1500 1500 1500 1499 1498 1498 1497 1495 1493 1490 1487 1485 1483
1483 1486 1480 1479 1468 1467 1465 1455 1457 1456 1455 1452 1450 1449 1449 1449 1451 1453 1453 1454 1457 1459 1461 1464 1467 1470 1474 1476 1481 1484 1487 1491 1493 1494 1495 1496 1498 1499 1499 1498 1497 1496 1495 1493 1490 1487 1485 1482 1480
1483 1483 1484 1478 1471 1471 1465 1457 1453 1452 1449 1447 1443 1443 1441 1442 1445 1446 1448 1450 1454 1456 1458 1460 1463 1466 1470 1473 1477 1481 1484 1489 1491 1493 1495 1495 1496 1499 1497 1497 1496 1494 1493 1490 1487 1485 1483 1480 1477
1481 1483 1480 1478 1473 1470 1463 1450 1448 1446 1441 1439 1437 1435 1434 1435 1438 1441 1443 1446 1449 1452 1454 1457 1460 1464 1466 1470 1475 1479 1484 1487 1489 1492 1493 1493 1496 1498 1497 1496 1495 1493 1491 1488 1486 1483 1481 1478 1475
1478 1481 1481 1479 1474 1469 1467 1438 1437 1431 1430 1427 1423 1424 1426 1428 1432 1436 1438 1442 1445 1447 1449 1452 1456 1460 1464 1469 1473 1477 1482 1486 1488 1490 1491 1493 1495 1496 1495 1495 1494 1492 1489 1487 1484 1481 1478 1477 1476
1472 1472 1473 1474 1478 1476 1459 1436 1423 1422 1418 1413 1415 1416 1417 1422 1426 1430 1433 1436 1441 1443 1446 1449 1453 1458 1463 1467 1472 1476 1479 1483 1486 1488 1490 1492 1494 1494 1494 1493 1492 1489 1488 1485 1482 1479 1477 1475 1473
1465 1466 1468 1468 1469 1469 1459 1462 1421 1415 1413 1410 1410 1410 1410 1414 1419 1424 1428 1432 1436 1441 1443 1448 1452 1457 1462 1467 1471 1475 1478 1481 1484 1486 1489 1491 1492 1492 1492 1491 1489 1487 1485 1483 1480 1478 1476 1474 1472
1460 1465 1465 1464 1467 1457 1453 1455 1407 1413 1411 1407 1404 1402 1403 1407 1412 1419 1424 1429 1432 1438 1443 1447 1452 1456 1461 1465 1469 1473 1476 1479 1481 1484 1487 1488 1490 1490 1490 1489 1487 1485 1483 1481 1478 1476 1473 1471 1469
1460 1466 1463 1459 1454 1442 1435 1440 1410 1401 1400 1398 1395 1393 1395 1399 1404 1410 1418 1424 1429 1434 1440 1445 1450 1455 1459 1464 1468 1471 1475 1479 1482 1484 1485 1487 1488 1488 1487 1486 1484 1482 1480 1478 1476 1473 1471 1469 1466
1450 1455 1455 1454 1453 1448 1429 1417 1396 1388 1385 1384 1387 1387 1390 1393 1397 1403 1412 1418 1424 1431 1438 1442 1447 1452 1457 1462 1467 1471 1475 1479 1481 1483 1483 1485 1486 1486 1485 1484 1482 1479 1477 1475 1473 1470 1467 1465 1461
1447 1447 1441 1443 1436 1439 1424 1404 1391 1385 1383 1380 1379 1380 1382 1387 1393 1397 1406 1414 1421 1428 1435 1440 1445 1451 1456 1460 1466 1470 1473 1477 1480 1481 1482 1483 1484 1483 1482 1481 1479 1476 1474 1471 1469 1466 1463 1460 1456
1437 1437 1446 1445 1442 1438 1421 1408 1393 1382 1376 1373 1373 1373 1377 1383 1390 1395 1402 1409 1418 1426 1435 1439 1445 1450 1454 1459 1465 1469 1473 1476 1478 1479 1480 1481 1481 1481 1479 1478 1476 1473 1471 1468 1465 1462 1459 1455 1452
1433 1434 1433 1433 1438 1442 1426 1399 1380 1379 1373 1369 1368 1367 1370 1378 1385 1392 1400 1410 1417 1426 1434 1439 1444 1449 1453 1458 1463 1467 1471 1474 1476 1478 1479 1479 1479 1478 1477 1475 1472 1470 1467 1464 1461 1458 1454 1450 1446
1417 1418 1428 1427 1438 1425 1423 1391 1373 1371 1367 1362 1363 1366 1372 1380 1386 1391 1400 1408 1416 1425 1433 1438 1443 1448 1453 1458 1462 1466 1470 1473 1475 1476 1476 1477 1476 1475 1473 1471 1469 1466 1463 1461 1457 1453 1449 1444 1440